カタログに戻る

COSMOS 1275 DEB

運用中PO
NORAD 18902·DEBRIS·🇷🇺 Russia

打ち上げ Jun 4, 1981 から Plesetsk Cosmodrome

Loading…

次のパス (今後24時間)

TLE

最新Source: Space-Track

元期: Sep 13, 2026, 08:40 UTC

1 18902U 81053MB  26256.36147040  .00005728  00000-0  12444-2 0  9992
2 18902  82.9405 225.8794 0010205 309.8890  50.1414 14.57915876678146

AllMySatでCOSMOS 1275 DEBをリアルタイム追跡

Download on the App Store